map of CJM home
CJM - Airport
Location
City:  Chumphon, Chumphon, Thailand
Near (Alt.):Chumporn
ICAO:VTSE
IATA:CJM

Details
Type:Airport (Aerodrome, Airfield)
Latitude:1042'40"N (10.711200)
Longitude:9921'42"E (99.361706)
Datum:WGS 1984
Elevation:18 ft (5 m)
Variation:0.55W (WMM2015v2 magnetic declination)
-0.02 annual change
Runways:1
Longest:6890 × 148 ft (2100 × 45 m), paved

Time
Time Zone:UTC+7
Local Time:

Weather
METAR:VTSE 041100Z 15004KT 120V190 9999 FEW020 29/25 Q1011 NOSIG
TAF:VTSE 041100Z 0412/0512 14005KT 9999 FEW020
BECMG 0420/0422 5000 BR
BECMG 0501/0503 9999 NSW

Related Locations
Nearby:
Farthest:CHM: 12262 mi / 19734 km
Chimbote [Teniente FAP Jaime A. de Montrevil Morales], ANC, PE

Find:

   beyond  
but within

Other Information
Maps:
NOTAMs:
Links:
Sources:

  
  • flag of Thailand
  

Sectional Chart

Flight Planning
at skyvector.com

Satellite Image

Google Maps Satellite view

 

Copyright © 2004-2019 Karl L. Swartz. All rights reserved.
The Great Circle Mapper name and logo are trademarks of the Great Circle Mapper.
All other trademarks mentioned herein belong to their respective owners.
Please see credits for attibutions and further copyright information.

  Follow gcmap on Facebook Follow gcmap on Twitter GCmap on LinkedIn

hCard Microformat

Geo Microformat